La Nava - Corral De Ayllón Airport

Jump to: basic info | weather | comments

Related pages: nearby airports | nearby navaids | notams | map

Basic information (top)

Codes: LECA
Location: lon 41.410801, lat -3.448330, elev 3,280 ft / 1,000 m msl
Status: small_airport

Weather (top)

Current conditions for Torrejón Airport 55nm (102km) S (rec'd 2014/07/23 22:00Z):

LETO 232200Z VRB01KT CAVOK 28/05 Q1011 NOSIG

Airport forecast for Torrejón Airport 55nm (102km) S (rec'd 2014/07/23 18:27Z):

TAF LETO 231700Z 2318/2418 24010KT CAVOK TX35/2416Z TN18/2406Z 
      BECMG 2319/2321 VRB05KT 
      BECMG 2410/2412 23010KT

Latest comments (top)

No comments yet for La Nava - Corral De Ayllón Airport

More... (top)

See also NOTAMs and nearby airports and navaids, or visit the La Nava - Corral De Ayllón Airport page at the main OurAirports website..